This demonstration page uses our WeatherBlox Daily Observations layout. Learn more.

Left ArrowRight Arrow

Hourly Observations for December 15, 2021

Temp ( °F °C ) Dew Point ( °F °C ) Humidity (%) Winds ( mph kmh ) Pressure ( in mb ) Visibility ( mi km ) Precip ( " mm )
12:56 am 00:56 Clear 54 12 49 9.2 83 83 SE 12 19 29.72 1007 10 16 0.00 0.00
1:56 am 01:56 Clear 52 11.3 47 8.5 83 83 SSE 8 13 29.70 1006 10 16 0.00 0.00
2:56 am 02:56 undefined 54 12.2 47 8.5 78 78 S 9 15 29.68 1005 10 16 0.00 0.00
3:56 am 03:56 Clear 57 13.7 48 8.9 73 73 S 15 24 29.67 1005 10 16 0.00 0.00
4:56 am 04:56 Clear 56 13.6 48 8.8 73 73 S 15 24 29.65 1004 10 16 0.00 0.00
6:56 am 06:56 Clear 58 14.7 50 10.1 74 74 S 17 28 29.63 1003 10 16 0.00 0.00
7:56 am 07:56 Sunny 59 14.8 51 10.4 75 75 S 16 26 29.61 1003 10 16 0.00 0.00
8:56 am 08:56 Sunny 60 15.7 52 10.9 73 73 S 17 28 29.61 1003 10 16 0.00 0.00
9:56 am 09:56 undefined 64 17.6 53 11.8 69 69 S 18 30 29.59 1002 10 16 0.00 0.00
10:56 am 10:56 undefined 66 18.9 56 13.1 69 69 S 23 37 29.55 1001 10 16 0.00 0.00
11:56 am 11:56 undefined 68 20.2 56 13.2 64 64 S 20 31 29.50 999 10 16 0.00 0.00
12:56 pm 12:56 Partly Cloudy 72 22.2 55 12.7 55 55 S 32 52 29.42 996 7 11 0.00 0.00
1:56 pm 13:56 Mostly Cloudy with Haze 73 22.8 56 13.3 55 55 S 33 54 29.37 995 3 5 0.00 0.00
2:56 pm 14:56 Mostly Cloudy 73 22.9 56 13.6 56 56 S 30 48 29.29 992 7 11 0.00 0.00
3:56 pm 15:56 Mostly Sunny 72 22.1 57 14 60 60 S 25 41 29.19 988 10 16 0.00 0.00
4:04 pm 16:04 Mostly Cloudy with Nearby Thunderstorms 72 22 57 14 61 61 SSE 26 43 29.16 987 9 14 0.00 0.00
4:08 pm 16:08 Windy with Storms Likely 72 22 57 14 61 61 SSE 26 43 29.16 987 9 14 0.00 0.00
4:14 pm 16:14 Cloudy with Strong Thunderstorms 72 22 59 15 65 65 SSW 47 76 29.24 990 1 1 0.00 0.00
4:25 pm 16:25 Windy with Storms Likely 50 10 45 7 82 82 SSW 31 50 29.27 991 3 5 0.00 0.00
4:37 pm 16:37 Cloudy 54 12 45 7 72 72 SSW 21 33 29.27 991 7 11 0.00 0.00
4:56 pm 16:56 Mostly Cloudy with Mist and Fog 54 12 43 6.3 68 68 SSW 16 26 29.26 991 3 5 0.00 0.00
5:56 pm 17:56 Mostly Cloudy with Haze 56 13.3 45 7.3 67 67 S 9 15 29.23 990 4 6 0.00 0.00
6:26 pm 18:26 undefined N/A N/A N/A SW 31 50 N/A 3 4 0.00 0.00
6:56 pm 18:56 Cloudy 59 15 37 3 45 45 SSW 17 28 29.25 991 1 2 0.00 0.00
7:56 pm 19:56 Mostly Cloudy with Haze 52 11 37 3 58 58 SW 23 37 29.35 994 2 3 0.00 0.00
8:56 pm 20:56 Mostly Cloudy 37 3 28 -2 70 70 SW 22 35 29.56 1001 10 16 0.00 0.00
9:56 pm 21:56 Cloudy 36 2 23 -5 60 60 SW 18 30 29.68 1005 10 16 0.00 0.00
10:56 pm 22:56 Mostly Cloudy 32 0 19 -7 60 60 SW 20 31 29.75 1008 10 16 0.00 0.00
11:56 pm 23:56 Mostly Cloudy 32 0 19 -7 60 60 SW 12 19 29.81 1010 10 16 0.00 0.00

Powered by AerisWeather